パンスターズ彗星

C/2023 H1 ( PanSTARRS )

English version
Home page
Updated on May 15, 2024

---------------------------------------------------------------------

・ プロフィール

発見日 2023年4月17日
発見光度 20.8等
発見者 Pan-STARRS 2 telescope (Haleakala)

・ 軌道要素

Epoch 2024 Mar. 31.0 TT = JDT 2460400.5
T 2024 Nov. 28.80495 TT                                 Rudenko
q   4.4479011            (2000.0)            P               Q
z  +0.0013199      Peri.  333.76502     -0.03330574     +0.93896665
 +/-0.0002027      Node   292.65608     -0.83930168     -0.21228025
e   0.9941290      Incl.   21.77870     -0.54264483     +0.27070043
>From 38 observations 2023 Apr. 17-2024 May 10, mean residual 0".3.

・ 光度変化

        m1 = 8.5 + 5 logΔ + 10.0 log r

---------------------------------------------------------------------

軌道要素はM.P.E.C. 2024-J304に掲載されたものです。
光度グラフはComet for Windowsで作成したものです。

---------------------------------------------------------------------

Copyright(C) Seiichi Yoshida (comet@aerith.net). All rights reserved.